Weather History for KUIN - April, 2013

Change the Weather History Date:

Friday, April 5, 2013

  Actual Average Record
Temperature  
Mean Temperature 49 °F 50 °F  
Max Temperature 63 °F 60 °F 84 °F (1942)
Min Temperature 34 °F 39 °F 15 °F (1929)
Degree Days  
Heating Degree Days 16 16  
Month to date heating degree days 121 82  
Since 1 July heating degree days 5174 5142  
Cooling Degree Days 0 0  
Month to date cooling degree days 0 0  
Year to date cooling degree days 0 2  
Moisture  
Dew Point 31 °F    
Average Humidity 58    
Maximum Humidity 89    
Minimum Humidity 27    
Precipitation  
Precipitation 0.00 in 0.11 in 2.78 in (1964)
Month to date precipitation 0.00 0.54  
Year to date precipitation 7.62 6.40  
Sea Level Pressure  
Sea Level Pressure 30.10 in    
Wind  
Wind Speed 7 mph (ENE)    
Max Wind Speed 14 mph    
Max Gust Speed 20 mph    
Visibility 10 miles    
Events      
T = Trace of Precipitation, MM = Missing Value Source: NWS Daily Summary

Daily Weather History Graph

Daily Weather History Graph

Search for Another Location

Airport or City:

Trip Planner

Search our weather history database for the weather conditions in past years. The results will help you decide how hot, cold, wet, or windy it might be!

Date:

Astronomy

Apr. 05, 2013 Rise Set
Actual Time 6:42 AM CDT 7:33 PM CDT
Civil Twilight 6:14 AM CDT 8:00 PM CDT
Nautical Twilight 5:42 AM CDT 8:33 PM CDT
Astronomical Twilight 5:08 AM CDT 9:07 PM CDT
Moon 3:49 AM CDT (4/5) 2:57 PM CDT (4/5)
Length of Visible Light 13h 46m
Length of Day
12h 51m
Waning Crescent, 23% of the Moon is Illuminated
Apr 5
Waning Crescent
Apr 10
New
Apr 18
First Quarter
Apr 25
Full
May 2
Last Quarter

Hourly Weather History & Observations

Time (CDT) Temp. Windchill Dew Point Humidity Pressure Visibility Wind Dir Wind Speed Gust Speed Precip Events Conditions
12:54 AM 44.6 °F 41.4 °F 26.6 °F 49% 30.06 in 10.0 mi West 5.8 mph - N/A   Clear
1:54 AM 41.0 °F 35.8 °F 28.0 °F 60% 30.08 in 10.0 mi NNW 8.1 mph - N/A   Clear
2:54 AM 44.1 °F 38.6 °F 34.0 °F 68% 30.09 in 10.0 mi North 10.4 mph - N/A   Clear
3:54 AM 39.9 °F 35.1 °F 33.1 °F 77% 30.11 in 10.0 mi North 6.9 mph - N/A   Clear
4:54 AM 37.9 °F 33.5 °F 33.1 °F 83% 30.12 in 10.0 mi North 5.8 mph - N/A   Clear
5:54 AM 37.0 °F 31.0 °F 32.0 °F 82% 30.14 in 10.0 mi North 8.1 mph - N/A   Clear
6:54 AM 34.0 °F 28.8 °F 30.0 °F 85% 30.15 in 7.0 mi NNE 5.8 mph - N/A   Clear
7:54 AM 39.9 °F 35.1 °F 33.1 °F 77% 30.17 in 8.0 mi NNE 6.9 mph - N/A   Clear
8:54 AM 44.1 °F 39.0 °F 33.1 °F 65% 30.19 in 10.0 mi NNE 9.2 mph - N/A   Clear
9:54 AM 48.0 °F - 32.0 °F 54% 30.20 in 10.0 mi ENE 5.8 mph - N/A   Clear
10:54 AM 50.0 °F - 30.9 °F 48% 30.19 in 10.0 mi Variable 4.6 mph - N/A   Scattered Clouds
11:54 AM 54.0 °F - 28.0 °F 37% 30.19 in 10.0 mi ENE 3.5 mph - N/A   Clear
12:54 PM 57.0 °F - 28.9 °F 34% 30.16 in 10.0 mi Variable 3.5 mph - N/A   Clear
1:54 PM 57.9 °F - 27.0 °F 31% 30.14 in 10.0 mi Calm Calm - N/A   Clear
2:54 PM 60.1 °F - 27.0 °F 28% 30.10 in 10.0 mi East 5.8 mph - N/A   Clear
3:54 PM 60.1 °F - 28.9 °F 31% 30.09 in 10.0 mi SE 4.6 mph - N/A   Clear
4:54 PM 62.1 °F - 28.9 °F 29% 30.07 in 10.0 mi South 3.5 mph - N/A   Clear
5:54 PM 62.1 °F - 30.0 °F 30% 30.06 in 10.0 mi Variable 3.5 mph - N/A   Clear
6:54 PM 57.9 °F - 33.1 °F 39% 30.05 in 10.0 mi SE 5.8 mph - N/A   Clear
7:54 PM 55.9 °F - 34.0 °F 44% 30.04 in 10.0 mi ESE 9.2 mph - N/A   Clear
8:54 PM 55.9 °F - 32.0 °F 40% 30.02 in 10.0 mi SE 12.7 mph - N/A   Clear
9:54 PM 54.0 °F - 33.1 °F 45% 30.02 in 10.0 mi SE 11.5 mph - N/A   Clear
10:54 PM 52.0 °F - 35.1 °F 53% 30.00 in 10.0 mi SE 11.5 mph - N/A   Clear
11:54 PM 53.1 °F - 34.0 °F 48% 29.99 in 10.0 mi SSE 11.5 mph - N/A   Clear